Flight Track Log - Related Links

Times and Time Zones

All times are in EDT time to prevent confusion due to time zone crossing. See the SWR461 flight status page for this flight to view local times or setup timezone preferences in your user account.

Time Position Orientation Groundspeed Altitude Reporting Facility
EDT Latitude Longitude Course Direction KTS MPH feet Rate Location/Type
Tue 05:00:00 AM 51.5051 0.0534 45° Northeast 15 17  Level FlightAware ADS-B (EGLC / LCY)
Tue 05:00:09 AM 51.5053 0.0544 93° East 17 20 27 Level FlightAware ADS-B (EGLC / LCY)
Tue 05:00:44 AM 51.5050 0.0615 93° East 23 26 28 Level FlightAware ADS-B (EGLC / LCY)
Tue 05:01:15 AM 51.5042 0.0644 90° East 15 17 34 Level FlightAware ADS-B (EGLC / LCY)
Tue 05:01:49 AM 51.5047 0.0659 11° North 8 9 41 Level FlightAware ADS-B (EGLC / LCY)
Tue 05:03:42 AM 51.5052 0.0566 273° West 100 115 100 458 Climbing FlightAware ADS-B (EGLC / LCY)
Tue 05:04:13 AM 51.5060 0.0291 272° West 115 132 1,100 1,959 Climbing FlightAware ADS-B (EGLC / LCY)
Tue 05:04:31 AM 51.5066 0.0104 273° West 113 130 1,700 1,548 Climbing FlightAware ADS-B
Tue 05:04:44 AM 51.5076 -0.0011 285° West 128 147 1,900 632 Climbing FlightAware ADS-B (EGLC / LCY)
Tue 05:04:50 AM 51.5089 -0.0065 292° West 132 152 1,900 750 Level FlightAware ADS-B
Tue 05:05:00 AM 51.5125 -0.0150 303° West 137 158 2,100 1,000 Climbing FlightAware ADS-B (EGLF / FAB)
Tue 05:05:08 AM 51.5173 -0.0211 329° Northwest 153 176 2,200 923 Climbing FlightAware ADS-B
Tue 05:05:13 AM 51.5202 -0.0234 338° Northwest 156 180 2,300 1,000 Climbing FlightAware ADS-B
Tue 05:05:20 AM 51.5248 -0.0259 342° North 171 197 2,400 783 Climbing FlightAware ADS-B (EGLF / FAB)
Tue 05:05:36 AM 51.5388 -0.0329 344° North 188 216 2,600 857 Climbing FlightAware ADS-B
Tue 05:05:55 AM 51.5569 -0.0314 25° Northeast 223 257 2,900 783 Climbing FlightAware ADS-B
Tue 05:05:59 AM 51.5602 -0.0289 32° Northeast 230 265 2,900 300 Level FlightAware ADS-B
Tue 05:06:15 AM 51.5722 -0.0053 64° Northeast 270 311 3,000 316 Climbing FlightAware ADS-B
Tue 05:06:18 AM 51.5734 -0.0016 72° East 268 308 3,000  Level FlightAware ADS-B
Tue 05:06:37 AM 51.5771 0.0319 86° East 272 313 3,000  Level FlightAware ADS-B (EGLC / LCY)
Tue 05:06:40 AM 51.5775 0.0441 87° East 271 312 3,000  Level FlightAware ADS-B
Tue 05:06:56 AM 51.5783 0.0743 90° East 273 314 3,000  Level FlightAware ADS-B
Tue 05:07:11 AM 51.5790 0.1047 90° East 272 313 3,000  Level FlightAware ADS-B
Tue 05:07:16 AM 51.5792 0.1168 90° East 273 314 3,000  Level FlightAware ADS-B
Tue 05:07:32 AM 51.5801 0.1492 90° East 274 315 3,000 300 Level FlightAware ADS-B
Tue 05:07:36 AM 51.5802 0.1555 88° East 276 318 3,100 1,143 Climbing FlightAware ADS-B
Tue 05:07:53 AM 51.5810 0.1920 90° East 274 315 3,400 938 Climbing FlightAware ADS-B
Tue 05:08:08 AM 51.5815 0.2083 87° East 276 318 3,600 1,548 Climbing FlightAware ADS-B
Tue 05:08:24 AM 51.5823 0.2516 89° East 278 320 4,200 1,742 Climbing FlightAware ADS-B (EGLC / LCY)
Tue 05:08:39 AM 51.5828 0.2848 89° East 281 323 4,500 1,412 Climbing FlightAware ADS-B
Tue 05:08:58 AM 51.5831 0.3247 91° East 282 325 5,000 1,400 Climbing FlightAware ADS-B
Tue 05:09:09 AM 51.5799 0.3497 110° East 290 334 5,200 857 Climbing FlightAware ADS-B
Tue 05:09:12 AM 51.5822 0.3374 100° East 287 330 5,200 857 Level FlightAware ADS-B (EGLC / LCY)
Tue 05:09:30 AM 51.5689 0.3890 116° Southeast 290 334 5,500 1,200 Climbing FlightAware ADS-B
Tue 05:09:37 AM 51.5648 0.4026 118° Southeast 367 422 5,700 1,043 Climbing FlightAware ADS-B (EGLF / FAB)
Tue 05:09:53 AM 51.5549 0.4354 117° Southeast 293 337 5,900 563 Climbing FlightAware ADS-B
Tue 05:10:09 AM 51.5449 0.4665 119° Southeast 296 341 6,000 480 Climbing FlightAware ADS-B
Tue 05:10:18 AM 51.5399 0.4797 123° Southeast 295 339 6,100 1,440 Climbing FlightAware ADS-B
Tue 05:10:34 AM 51.5261 0.5100 126° Southeast 296 341 6,600 2,182 Climbing FlightAware ADS-B
Tue 05:10:51 AM 51.5121 0.5403 126° Southeast 298 343 7,300 2,154 Climbing FlightAware ADS-B (EGLC / LCY)
Tue 05:11:13 AM 51.4965 0.5743 127° Southeast 303 349 8,000 2,195 Climbing FlightAware ADS-B
Tue 05:11:32 AM 51.4784 0.6143 126° Southeast 304 350 8,800 2,471 Climbing FlightAware ADS-B (EGLC / LCY)
Tue 05:11:47 AM 51.4659 0.6418 126° Southeast 307 353 9,400 2,438 Climbing FlightAware ADS-B
Tue 05:12:04 AM 51.4511 0.6749 126° Southeast 306 352 10,100 1,959 Climbing FlightAware ADS-B (EGHI / SOU)
Tue 05:12:36 AM 51.4251 0.7341 122° Southeast 319 367 11,000 1,925 Climbing FlightAware ADS-B
Tue 05:12:57 AM 51.4117 0.7814 110° East 320 368 11,800 1,778 Climbing FlightAware ADS-B (EGLC / LCY)
Tue 05:13:30 AM 51.3955 0.8517 110° East 331 381 12,600 1,524 Climbing FlightAware ADS-B (EGLF / FAB)
Tue 05:14:00 AM 51.3804 0.9223 109° East 344 396 13,400 1,698 Climbing FlightAware ADS-B
Tue 05:14:23 AM 51.3669 0.9826 109° East 346 398 14,100 1,696 Climbing FlightAware ADS-B
Tue 05:14:46 AM 51.3542 1.0383 110° East 352 405 14,700 1,500 Climbing FlightAware ADS-B
Tue 05:14:51 AM 51.3517 1.0505 109° East 354 407 14,800 1,500 Climbing FlightAware ADS-B
Tue 05:15:02 AM 51.3466 1.0783 104° East 356 410 15,100 2,000 Climbing FlightAware ADS-B
Tue 05:15:36 AM 51.3404 1.1193 104° East 358 412 16,300 1,688 Climbing FlightAware ADS-B
Tue 05:16:06 AM 51.3221 1.2378 104° East 365 420 16,900 857 Climbing FlightAware ADS-B
Tue 05:16:39 AM 51.3076 1.3295 104° East 385 443 17,200 750 Climbing FlightAware ADS-B (EGLC / LCY)
Tue 05:16:46 AM 51.3043 1.3515 104° East 387 445 17,400 1,200 Climbing FlightAware ADS-B
Tue 05:16:49 AM 51.3076 1.3295 104° East 387 445 17,400 667 Level FlightAware ADS-B (EGLF / FAB)
Tue 05:16:55 AM 51.3007 1.3737 102° East 387 445 17,500 1,333 Climbing FlightAware ADS-B (EGKK / LGW)
Tue 05:17:07 AM 51.2954 1.4101 103° East 388 447 17,800 1,588 Climbing FlightAware ADS-B
Tue 05:17:29 AM 51.2861 1.4687 103° East 389 448 18,400 1,500 Climbing FlightAware ADS-B
Tue 05:17:59 AM 51.2730 1.5530 104° East 396 456 19,100 1,151 Climbing FlightAware ADS-B (EGLC / LCY)
Tue 05:18:42 AM 51.2532 1.6792 104° East 406 467 19,800 1,021 Climbing FlightAware UK
Tue 05:18:46 AM 51.2513 1.6905 104° East 408 470 19,900 833 Climbing FlightAware ADS-B
Tue 05:19:18 AM 51.2362 1.7858 104° East 416 479 20,300 977 Climbing FlightAware UK
Tue 05:19:29 AM 51.2316 1.8146 104° East 415 478 20,600 2,400 Climbing FlightAware ADS-B (EGLC / LCY)
Tue 05:19:38 AM 51.2279 1.8351 104° East 417 480 21,100 1,227 Climbing FlightAware ADS-B
Tue 05:20:13 AM 51.2106 1.9454 104° East 419 482 21,500 906 Climbing FlightAware ADS-B (EGLC / LCY)
Tue 05:20:31 AM 51.2017 1.9992 104° East 420 483 21,900 1,091 Climbing FlightAware ADS-B
Tue 05:20:46 AM 51.1942 2.0444 103° East 420 483 22,100 875 Climbing FlightAware ADS-B
Tue 05:21:19 AM 51.1820 2.1204 104° East 428 493 22,600 889 Climbing FlightAware ADS-B (EGLC / LCY)
Tue 05:21:40 AM 51.1710 2.1877 105° East 436 502 22,900 643 Climbing FlightAware ADS-B (EGLF / FAB)
Tue 05:22:15 AM 51.1495 2.3212 105° East 444 511 23,200 646 Climbing FlightAware ADS-B
Tue 05:22:45 AM 51.1329 2.4161 105° East 446 513 23,600 787 Climbing FlightAware ADS-B
Tue 05:23:16 AM 51.1158 2.5114 105° East 447 514 24,000 938 Climbing FlightAware ADS-B
Tue 05:23:49 AM 51.0970 2.6163 106° East 451 519 24,600 1,000 Climbing FlightAware ADS-B (EGLC / LCY)
Tue 05:24:04 AM 51.0879 2.6672 105° East 448 516 24,800 652 Climbing FlightAware ADS-B (EHGR / GLZ)
Tue 05:24:35 AM 51.0706 2.7631 105° East 454 522 25,100 656 Climbing FlightAware ADS-B (EHGR / GLZ)
Tue 05:25:08 AM 51.0527 2.8629 106° East 456 525 25,500 789 Climbing FlightAware ADS-B (EGLC / LCY)
Tue 05:25:13 AM 51.0475 2.8921 105° East 455 524 25,600 1,000 Climbing FlightAware ADS-B (YPPH / PER)
Tue 05:25:44 AM 51.0301 2.9884 105° East 453 521 26,100 831 Climbing FlightAware ADS-B
Tue 05:26:18 AM 51.0106 3.0944 106° East 455 524 26,500 738 Climbing FlightAware ADS-B (LRBS / BBU)
Tue 05:26:49 AM 50.9926 3.1937 106° East 455 524 26,900 771 Climbing FlightAware ADS-B (EGLC / LCY)
Tue 05:27:28 AM 50.9697 3.3188 105° East 453 521 27,400 857 Climbing FlightAware ADS-B (EHGR / GLZ)
Tue 05:27:59 AM 50.9514 3.4174 106° East 453 521 27,900 857 Climbing FlightAware ADS-B (EHGR / GLZ)
Tue 05:28:31 AM 50.9324 3.5189 107° East 451 519 28,300 800 Climbing FlightAware ADS-B
Tue 05:28:59 AM 50.9156 3.6103 106° East 449 517 28,700 700 Climbing FlightAware ADS-B
Tue 05:29:31 AM 50.8997 3.6952 107° East 449 517 29,000 290 Climbing FlightAware ADS-B (EPKK / KRK)
Tue 05:30:01 AM 50.8789 3.8027 107° East 451 519 29,000  Level FlightAware ADS-B
Tue 05:30:33 AM 50.8725 3.8381 107° East 465 535 29,000  Level FlightAware ADS-B (EPKK / KRK)
Tue 05:31:09 AM 50.8371 4.0235 107° East 464 534 29,000  Level FlightAware ADS-B (EHGR / GLZ)
Tue 05:31:40 AM 50.8177 4.1239 107° East 462 532 29,000  Level FlightAware ADS-B
Tue 05:32:13 AM 50.7977 4.2268 107° East 463 533 29,000  Level FlightAware ADS-B (EPKK / KRK)
Tue 05:32:43 AM 50.7779 4.3302 106° East 460 529 29,000  Level FlightAware ADS-B (EHGR / GLZ)
Tue 05:33:13 AM 50.7601 4.4201 107° East 462 532 29,000  Level FlightAware ADS-B (EPKK / KRK)
Tue 05:33:46 AM 50.7382 4.5295 106° East 460 529 29,000  Level FlightAware ADS-B
Tue 05:34:17 AM 50.7184 4.6289 107° East 463 533 29,000  Level FlightAware ADS-B (LRBS / BBU)
Tue 05:34:31 AM 50.7099 4.6742 106° East 460 529 29,000  Level FlightAware ADS-B (EHGR / GLZ)
Tue 05:34:43 AM 50.7019 4.7129 106° East 461 531 29,000  Level FlightAware ADS-B
Tue 05:35:14 AM 50.6823 4.8127 107° East 462 532 29,000  Level FlightAware ADS-B
Tue 05:35:26 AM 50.6745 4.8513 111° Southeast 461 531 29,000  Level FlightAware ADS-B
Tue 05:36:12 AM 50.6215 4.9772 134° Southeast 436 502 29,000  Level FlightAware ADS-B
Tue 05:36:17 AM 50.6151 4.9862 135° Southeast 436 502 29,000  Level FlightAware ADS-B (EHGR / GLZ)
Tue 05:36:58 AM 50.5744 5.0509 136° Southeast 434 499 29,000  Level FlightAware ADS-B (LRBS / BBU)
Tue 05:37:28 AM 50.5132 5.1433 135° Southeast 429 494 29,000  Level FlightAware ADS-B
Tue 05:37:46 AM 50.4873 5.1828 135° Southeast 429 494 29,000  Level FlightAware ADS-B
Tue 05:38:21 AM 50.4375 5.2593 136° Southeast 432 497 29,000  Level FlightAware ADS-B (EHGR / GLZ)
Tue 05:39:02 AM 50.3790 5.3492 136° Southeast 434 499 29,000  Level FlightAware ADS-B (EHGR / GLZ)
Tue 05:39:38 AM 50.3277 5.4279 136° Southeast 434 499 29,000  Level FlightAware ADS-B (EHGR / GLZ)
Tue 05:40:08 AM 50.2838 5.4938 136° Southeast 433 498 29,000  Level FlightAware ADS-B (EHGR / GLZ)
Tue 05:40:54 AM 50.2173 5.5960 136° Southeast 430 495 29,000  Level FlightAware ADS-B (EHGR / GLZ)
Tue 05:41:26 AM 50.1730 5.6628 136° Southeast 429 494 29,000  Level FlightAware ADS-B (EHGR / GLZ)
Tue 05:41:56 AM 50.1308 5.7271 136° Southeast 429 494 29,000  Level FlightAware ADS-B (EHGR / GLZ)
Tue 05:42:53 AM 50.0478 5.8513 136° Southeast 430 495 29,000  Level FlightAware ADS-B (EHGR / GLZ)
Tue 05:43:35 AM 49.9880 5.9413 136° Southeast 431 496 29,000  Level FlightAware ADS-B (EHGR / GLZ)
Tue 05:45:20 AM 49.8316 6.1487 155° Southeast 408 470 29,000  Level FlightAware ADS-B (EHGR / GLZ)
Tue 05:58:21 AM 48.4949 7.0043 159° South 409 471 29,000 -22 Level FlightAware ADS-B
Tue 05:59:01 AM 48.4185 7.0485 159° South 407 468 28,700 -938 Descending FlightAware ADS-B
Tue 06:01:01 AM 48.2258 7.1608 159° South 413 475 26,500 -1,200 Descending FlightAware ADS-B
Tue 06:02:01 AM 48.1140 7.2253 159° South 413 475 25,100 -1,560 Descending FlightAware ADS-B
Tue 06:02:41 AM 48.0306 7.2737 159° South 391 450 23,900 -1,650 Descending FlightAware ADS-B
Tue 06:03:21 AM 47.9521 7.3180 159° South 390 449 22,900 -1,500 Descending FlightAware ADS-B
Tue 06:04:01 AM 47.8860 7.3551 159° South 387 445 21,900 -1,425 Descending FlightAware ADS-B
Tue 06:04:41 AM 47.8232 7.3911 159° South 383 441 21,000 -1,615 Descending FlightAware ADS-B
Tue 06:04:53 AM 47.7826 7.4145 158° South 378 435 20,500 -1,200 Descending FlightAware ADS-B
Tue 06:05:41 AM 47.7437 7.4365 159° South 373 429 19,800 -1,438 Descending FlightAware ADS-B
Tue 06:06:54 AM 47.6154 7.5726 110° East 386 444 17,600 -2,000 Descending FlightAware ADS-B
Tue 06:07:53 AM 47.5865 7.6948 108° East 328 377 15,400 -2,370 Descending FlightAware ADS-B
Tue 06:08:53 AM 47.5585 7.8214 108° East 291 335 12,900 -2,550 Descending FlightAware ADS-B
Tue 06:09:53 AM 47.5332 7.9398 106° East 277 319 10,300 -2,350 Descending FlightAware ADS-B
Tue 06:10:53 AM 47.5131 8.0458 105° East 265 305 8,200 -1,842 Descending FlightAware ADS-B
Tue 06:11:47 AM 47.4963 8.1301 107° East 262 302 6,800 -754 Descending FlightAware ADS-B
Tue 06:13:48 AM 47.5767 8.1716 325° Northwest 197 227 6,000 -397 Descending FlightAware ADS-B
Tue 06:27:00 AM 47.4647 8.5492 North  Level Estimated

Login

Don't have an account? Register now (free) for customized features, flight alerts, and more!